Location: Bakhuizen
(52.8696°N, 5.4575°E)
Time: 08:27:35
(UTC+00:00)

Cosmos 1812 - Pass Details

Date: 11 May 2021
Orbit: 514 x 521 km, 82.5° (Epoch: 20 June)

Event Time Altitude Azimuth Distance (km) Brightness Sun altitude
Exits shadow 20:46:53 - 178° (S) 1,870 5.1 -10.3°
Reaches altitude 10° 20:47:09 10° 178° (S) 1,757 4.9 -10.3°
Maximum altitude 20:50:58 63° 98° (E) 589 2.7 -10.7°
Drops below altitude 10° 20:54:49 10° 16° (NNE) 1,772 5.9 -11.1°
Sets 20:56:59 0° 14° (NNE) 2,666 6.9 -11.3°
